owner,sensor,date,latitude,longitude,vertical_datum,mass_concentration_of_oxygen_in_sea_water,qcFlag 
DISL,ioos:station:DISL:DISL:1,2019-07-01T00:00:00Z,30.2513,-88.0778,2.194,7.77,11111222 
DISL,ioos:station:DISL:DISL:1,2019-07-01T01:00:00Z,30.2513,-88.0778,2.192,8.2,11111222 
DISL,ioos:station:DISL:DISL:1,2019-07-01T02:00:00Z,30.2513,-88.0778,2.217,7.26,11111222 
DISL,ioos:station:DISL:DISL:1,2019-07-01T03:00:00Z,30.2513,-88.0778,2.231,7.21,11111222 
DISL,ioos:station:DISL:DISL:1,2019-07-01T04:00:00Z,30.2513,-88.0778,2.26,6.56,11111222 
DISL,ioos:station:DISL:DISL:1,2019-07-01T05:00:00Z,30.2513,-88.0778,2.299,6.46,11111222 
DISL,ioos:station:DISL:DISL:1,2019-07-01T06:00:00Z,30.2513,-88.0778,2.375,6.8,11111222 
DISL,ioos:station:DISL:DISL:1,2019-07-01T07:00:00Z,30.2513,-88.0778,2.418,6.42,11111222 
DISL,ioos:station:DISL:DISL:1,2019-07-01T08:00:00Z,30.2513,-88.0778,2.473,6.11,11111222 
DISL,ioos:station:DISL:DISL:1,2019-07-01T09:00:00Z,30.2513,-88.0778,2.531,6.5,11111222 
DISL,ioos:station:DISL:DISL:1,2019-07-01T10:00:00Z,30.2513,-88.0778,2.583,5.18,11111222 
DISL,ioos:station:DISL:DISL:1,2019-07-01T11:00:00Z,30.2513,-88.0778,2.637,5.09,11111222 
DISL,ioos:station:DISL:DISL:1,2019-07-01T13:00:00Z,30.2513,-88.0778,2.723,6.17,11111222 
DISL,ioos:station:DISL:DISL:1,2019-07-01T14:00:00Z,30.2513,-88.0778,2.726,6.05,11111222 
DISL,ioos:station:DISL:DISL:1,2019-07-01T17:00:00Z,30.2513,-88.0778,2.611,6.77,11111222 
DISL,ioos:station:DISL:DISL:1,2019-07-01T18:00:00Z,30.2513,-88.0778,2.556,7.0,11111222 
DISL,ioos:station:DISL:DISL:1,2019-07-01T19:00:00Z,30.2513,-88.0778,2.461,7.13,11111222 
DISL,ioos:station:DISL:DISL:1,2019-07-01T20:00:00Z,30.2513,-88.0778,2.376,6.58,11111222 
DISL,ioos:station:DISL:DISL:1,2019-07-01T21:00:00Z,30.2513,-88.0778,2.275,9.28,11111222 
DISL,ioos:station:DISL:DISL:1,2019-07-01T22:00:00Z,30.2513,-88.0778,2.218,9.18,11111222 
DISL,ioos:station:DISL:DISL:1,2019-07-01T23:00:00Z,30.2513,-88.0778,2.173,9.09,11111222 
DISL,ioos:station:DISL:DISL:1,2019-07-02T00:00:00Z,30.2513,-88.0778,2.133,8.54,11111222 
DISL,ioos:station:DISL:DISL:1,2019-07-02T01:00:00Z,30.2513,-88.0778,2.097,7.1,11111222 
DISL,ioos:station:DISL:DISL:1,2019-07-02T02:00:00Z,30.2513,-88.0778,2.115,7.19,11111222 
DISL,ioos:station:DISL:DISL:1,2019-07-02T03:00:00Z,30.2513,-88.0778,2.132,6.91,11111222 
DISL,ioos:station:DISL:DISL:1,2019-07-02T04:00:00Z,30.2513,-88.0778,2.141,5.15,11111222 
DISL,ioos:station:DISL:DISL:1,2019-07-02T05:00:00Z,30.2513,-88.0778,2.156,6.05,11111222 
DISL,ioos:station:DISL:DISL:1,2019-07-02T06:00:00Z,30.2513,-88.0778,2.199,6.7,11111222 
DISL,ioos:station:DISL:DISL:1,2019-07-02T07:00:00Z,30.2513,-88.0778,2.252,6.25,11111222 
DISL,ioos:station:DISL:DISL:1,2019-07-02T08:00:00Z,30.2513,-88.0778,2.303,5.97,11111222 
DISL,ioos:station:DISL:DISL:1,2019-07-02T09:00:00Z,30.2513,-88.0778,2.36,5.89,11111222 
DISL,ioos:station:DISL:DISL:1,2019-07-02T10:00:00Z,30.2513,-88.0778,2.414,5.07,11111222 
DISL,ioos:station:DISL:DISL:1,2019-07-02T11:00:00Z,30.2513,-88.0778,2.472,5.3,11111222 
DISL,ioos:station:DISL:DISL:1,2019-07-02T12:00:00Z,30.2513,-88.0778,2.545,4.87,11111222 
DISL,ioos:station:DISL:DISL:1,2019-07-02T13:00:00Z,30.2513,-88.0778,2.611,5.33,11111222 
DISL,ioos:station:DISL:DISL:1,2019-07-02T14:00:00Z,30.2513,-88.0778,2.642,5.51,11111222 
DISL,ioos:station:DISL:DISL:1,2019-07-02T15:00:00Z,30.2513,-88.0778,2.644,5.43,11111222 
DISL,ioos:station:DISL:DISL:1,2019-07-02T16:00:00Z,30.2513,-88.0778,2.629,6.37,11111222 
DISL,ioos:station:DISL:DISL:1,2019-07-02T17:00:00Z,30.2513,-88.0778,2.604,6.56,11111222 
DISL,ioos:station:DISL:DISL:1,2019-07-02T18:00:00Z,30.2513,-88.0778,2.557,6.68,11111222 
DISL,ioos:station:DISL:DISL:1,2019-07-02T19:00:00Z,30.2513,-88.0778,2.48,6.84,11111222 
DISL,ioos:station:DISL:DISL:1,2019-07-02T20:00:00Z,30.2513,-88.0778,2.388,7.46,11111222 
DISL,ioos:station:DISL:DISL:1,2019-07-02T21:00:00Z,30.2513,-88.0778,2.312,7.54,11111222 
DISL,ioos:station:DISL:DISL:1,2019-07-02T22:00:00Z,30.2513,-88.0778,2.248,7.54,11111222 
DISL,ioos:station:DISL:DISL:1,2019-07-02T23:00:00Z,30.2513,-88.0778,2.2,8.0,11111222 
DISL,ioos:station:DISL:DISL:1,2019-07-03T00:00:00Z,30.2513,-88.0778,2.149,8.09,11111222 
DISL,ioos:station:DISL:DISL:1,2019-07-03T01:00:00Z,30.2513,-88.0778,2.116,7.16,11111222 
DISL,ioos:station:DISL:DISL:1,2019-07-03T02:00:00Z,30.2513,-88.0778,2.084,6.37,11111222 
DISL,ioos:station:DISL:DISL:1,2019-07-03T03:00:00Z,30.2513,-88.0778,2.068,5.97,11111222 
DISL,ioos:station:DISL:DISL:1,2019-07-03T04:00:00Z,30.2513,-88.0778,2.072,5.61,11111222 
DISL,ioos:station:DISL:DISL:1,2019-07-03T05:00:00Z,30.2513,-88.0778,2.1,5.44,11111222 
DISL,ioos:station:DISL:DISL:1,2019-07-03T06:00:00Z,30.2513,-88.0778,2.145,4.53,11111222 
DISL,ioos:station:DISL:DISL:1,2019-07-03T07:00:00Z,30.2513,-88.0778,2.185,5.22,11111222 
DISL,ioos:station:DISL:DISL:1,2019-07-03T08:00:00Z,30.2513,-88.0778,2.222,5.46,11111222 
DISL,ioos:station:DISL:DISL:1,2019-07-03T09:00:00Z,30.2513,-88.0778,2.284,5.5,11111222 
DISL,ioos:station:DISL:DISL:1,2019-07-03T10:00:00Z,30.2513,-88.0778,2.35,5.88,11111222 
DISL,ioos:station:DISL:DISL:1,2019-07-03T11:00:00Z,30.2513,-88.0778,2.415,5.53,11111222 
DISL,ioos:station:DISL:DISL:1,2019-07-03T12:00:00Z,30.2513,-88.0778,2.482,5.02,11111222 
DISL,ioos:station:DISL:DISL:1,2019-07-03T13:00:00Z,30.2513,-88.0778,2.553,5.79,11111222 
DISL,ioos:station:DISL:DISL:1,2019-07-03T14:00:00Z,30.2513,-88.0778,2.605,5.82,11111222 
DISL,ioos:station:DISL:DISL:1,2019-07-03T15:00:00Z,30.2513,-88.0778,2.635,5.86,11111222 
DISL,ioos:station:DISL:DISL:1,2019-07-03T16:00:00Z,30.2513,-88.0778,2.652,5.29,11111222 
DISL,ioos:station:DISL:DISL:1,2019-07-03T17:00:00Z,30.2513,-88.0778,2.641,6.07,11111222 
DISL,ioos:station:DISL:DISL:1,2019-07-03T18:00:00Z,30.2513,-88.0778,2.603,6.39,11111222 
DISL,ioos:station:DISL:DISL:1,2019-07-03T19:00:00Z,30.2513,-88.0778,2.527,6.61,11111222 
DISL,ioos:station:DISL:DISL:1,2019-07-03T20:00:00Z,30.2513,-88.0778,2.445,7.01,11111222 
DISL,ioos:station:DISL:DISL:1,2019-07-03T21:00:00Z,30.2513,-88.0778,2.349,7.23,11111222 
DISL,ioos:station:DISL:DISL:1,2019-07-03T22:00:00Z,30.2513,-88.0778,2.285,7.51,11111222 
DISL,ioos:station:DISL:DISL:1,2019-07-03T23:00:00Z,30.2513,-88.0778,2.21,7.32,11111222 
DISL,ioos:station:DISL:DISL:1,2019-07-04T00:00:00Z,30.2513,-88.0778,2.158,7.92,11111222 
DISL,ioos:station:DISL:DISL:1,2019-07-04T01:00:00Z,30.2513,-88.0778,2.106,6.77,11111222 
DISL,ioos:station:DISL:DISL:1,2019-07-04T02:00:00Z,30.2513,-88.0778,2.063,6.33,11111222 
DISL,ioos:station:DISL:DISL:1,2019-07-04T03:00:00Z,30.2513,-88.0778,2.041,6.22,11111222 
DISL,ioos:station:DISL:DISL:1,2019-07-04T04:00:00Z,30.2513,-88.0778,2.035,6.19,11111222 
DISL,ioos:station:DISL:DISL:1,2019-07-04T05:00:00Z,30.2513,-88.0778,2.033,5.72,11111222 
DISL,ioos:station:DISL:DISL:1,2019-07-04T06:00:00Z,30.2513,-88.0778,2.063,5.68,11111222 
DISL,ioos:station:DISL:DISL:1,2019-07-04T07:00:00Z,30.2513,-88.0778,2.096,5.17,11111222 
DISL,ioos:station:DISL:DISL:1,2019-07-04T08:00:00Z,30.2513,-88.0778,2.134,5.11,11111222 
DISL,ioos:station:DISL:DISL:1,2019-07-04T09:00:00Z,30.2513,-88.0778,2.19,5.6,11111222 
DISL,ioos:station:DISL:DISL:1,2019-07-04T10:00:00Z,30.2513,-88.0778,2.275,5.32,11111222 
DISL,ioos:station:DISL:DISL:1,2019-07-04T11:00:00Z,30.2513,-88.0778,2.34,5.32,11111222 
DISL,ioos:station:DISL:DISL:1,2019-07-04T12:00:00Z,30.2513,-88.0778,2.4,5.51,11111222 
DISL,ioos:station:DISL:DISL:1,2019-07-04T13:00:00Z,30.2513,-88.0778,2.463,5.3,11111222 
DISL,ioos:station:DISL:DISL:1,2019-07-04T14:00:00Z,30.2513,-88.0778,2.537,5.1,11111222 
DISL,ioos:station:DISL:DISL:1,2019-07-04T15:00:00Z,30.2513,-88.0778,2.594,5.43,11111222 
DISL,ioos:station:DISL:DISL:1,2019-07-04T16:00:00Z,30.2513,-88.0778,2.644,5.87,11111222 
DISL,ioos:station:DISL:DISL:1,2019-07-04T17:00:00Z,30.2513,-88.0778,2.652,6.11,11111222 
DISL,ioos:station:DISL:DISL:1,2019-07-04T18:00:00Z,30.2513,-88.0778,2.644,6.69,11111222 
DISL,ioos:station:DISL:DISL:1,2019-07-04T19:00:00Z,30.2513,-88.0778,2.593,7.03,11111222 
DISL,ioos:station:DISL:DISL:1,2019-07-04T20:00:00Z,30.2513,-88.0778,2.524,7.2,11111222 
DISL,ioos:station:DISL:DISL:1,2019-07-04T21:00:00Z,30.2513,-88.0778,2.447,7.46,11111222 
DISL,ioos:station:DISL:DISL:1,2019-07-04T22:00:00Z,30.2513,-88.0778,2.373,7.8,11111222 
DISL,ioos:station:DISL:DISL:1,2019-07-04T23:00:00Z,30.2513,-88.0778,2.31,7.55,11111222 
DISL,ioos:station:DISL:DISL:1,2019-07-05T00:00:00Z,30.2513,-88.0778,2.247,7.65,11111222 
DISL,ioos:station:DISL:DISL:1,2019-07-05T01:00:00Z,30.2513,-88.0778,2.164,8.13,11111222 
DISL,ioos:station:DISL:DISL:1,2019-07-05T02:00:00Z,30.2513,-88.0778,2.131,7.64,11111222 
DISL,ioos:station:DISL:DISL:1,2019-07-05T03:00:00Z,30.2513,-88.0778,2.104,6.63,11111222 
DISL,ioos:station:DISL:DISL:1,2019-07-05T04:00:00Z,30.2513,-88.0778,2.067,6.25,11111222 
DISL,ioos:station:DISL:DISL:1,2019-07-05T05:00:00Z,30.2513,-88.0778,2.056,5.97,11111222 
DISL,ioos:station:DISL:DISL:1,2019-07-05T06:00:00Z,30.2513,-88.0778,2.079,5.65,11111222 
DISL,ioos:station:DISL:DISL:1,2019-07-05T07:00:00Z,30.2513,-88.0778,2.084,5.5,11111222 
DISL,ioos:station:DISL:DISL:1,2019-07-05T08:00:00Z,30.2513,-88.0778,2.135,3.6,11111222 
DISL,ioos:station:DISL:DISL:1,2019-07-05T09:00:00Z,30.2513,-88.0778,2.171,5.15,11111222 
DISL,ioos:station:DISL:DISL:1,2019-07-05T10:00:00Z,30.2513,-88.0778,2.218,5.69,11111222 
DISL,ioos:station:DISL:DISL:1,2019-07-05T11:00:00Z,30.2513,-88.0778,2.305,5.32,11111222 
DISL,ioos:station:DISL:DISL:1,2019-07-05T12:00:00Z,30.2513,-88.0778,2.371,5.22,11111222 
DISL,ioos:station:DISL:DISL:1,2019-07-05T13:00:00Z,30.2513,-88.0778,2.438,4.64,11111222 
DISL,ioos:station:DISL:DISL:1,2019-07-05T14:00:00Z,30.2513,-88.0778,2.477,4.51,11111222 
DISL,ioos:station:DISL:DISL:1,2019-07-05T15:00:00Z,30.2513,-88.0778,2.536,4.38,11111222 
DISL,ioos:station:DISL:DISL:1,2019-07-05T16:00:00Z,30.2513,-88.0778,2.592,5.27,11111222 
DISL,ioos:station:DISL:DISL:1,2019-07-05T17:00:00Z,30.2513,-88.0778,2.62,5.59,11111222 
DISL,ioos:station:DISL:DISL:1,2019-07-05T17:30:00Z,30.2513,-88.0778,2.621,6.15,11111222 
DISL,ioos:station:DISL:DISL:1,2019-07-05T20:00:00Z,30.2513,-88.0778,2.562,7.36,11111222 
DISL,ioos:station:DISL:DISL:1,2019-07-05T21:00:00Z,30.2513,-88.0778,2.522,7.69,11111222 
DISL,ioos:station:DISL:DISL:1,2019-07-05T22:00:00Z,30.2513,-88.0778,2.443,7.84,11111222 
DISL,ioos:station:DISL:DISL:1,2019-07-05T23:00:00Z,30.2513,-88.0778,2.373,7.02,11111222 
DISL,ioos:station:DISL:DISL:1,2019-07-06T00:00:00Z,30.2513,-88.0778,2.31,7.48,11111222 
DISL,ioos:station:DISL:DISL:1,2019-07-06T01:00:00Z,30.2513,-88.0778,2.246,9.33,11111222 
DISL,ioos:station:DISL:DISL:1,2019-07-06T02:00:00Z,30.2513,-88.0778,2.177,8.45,11111222 
DISL,ioos:station:DISL:DISL:1,2019-07-06T03:00:00Z,30.2513,-88.0778,2.155,6.85,11111222 
DISL,ioos:station:DISL:DISL:1,2019-07-06T04:00:00Z,30.2513,-88.0778,2.131,6.34,11111222 
DISL,ioos:station:DISL:DISL:1,2019-07-06T05:00:00Z,30.2513,-88.0778,2.095,6.08,11111222 
DISL,ioos:station:DISL:DISL:1,2019-07-06T06:00:00Z,30.2513,-88.0778,2.101,6.44,11111222 
DISL,ioos:station:DISL:DISL:1,2019-07-06T07:00:00Z,30.2513,-88.0778,2.113,4.62,11111222 
DISL,ioos:station:DISL:DISL:1,2019-07-06T08:00:00Z,30.2513,-88.0778,2.139,5.84,11111222 
DISL,ioos:station:DISL:DISL:1,2019-07-06T09:00:00Z,30.2513,-88.0778,2.166,5.51,11111222 
DISL,ioos:station:DISL:DISL:1,2019-07-06T10:00:00Z,30.2513,-88.0778,2.225,5.16,11111222 
DISL,ioos:station:DISL:DISL:1,2019-07-06T11:00:00Z,30.2513,-88.0778,2.269,5.19,11111222 
DISL,ioos:station:DISL:DISL:1,2019-07-06T12:00:00Z,30.2513,-88.0778,2.315,4.97,11111222 
DISL,ioos:station:DISL:DISL:1,2019-07-06T13:00:00Z,30.2513,-88.0778,2.376,5.66,11111222 
DISL,ioos:station:DISL:DISL:1,2019-07-06T14:00:00Z,30.2513,-88.0778,2.432,5.61,11111222 
DISL,ioos:station:DISL:DISL:1,2019-07-06T15:00:00Z,30.2513,-88.0778,2.48,4.94,11111222 
DISL,ioos:station:DISL:DISL:1,2019-07-06T16:00:00Z,30.2513,-88.0778,2.524,5.06,11111222 
DISL,ioos:station:DISL:DISL:1,2019-07-06T17:00:00Z,30.2513,-88.0778,2.533,5.0,11111222 
DISL,ioos:station:DISL:DISL:1,2019-07-06T18:00:00Z,30.2513,-88.0778,2.537,5.69,11111222 
DISL,ioos:station:DISL:DISL:1,2019-07-06T19:00:00Z,30.2513,-88.0778,2.596,7.15,11111222 
DISL,ioos:station:DISL:DISL:1,2019-07-06T20:00:00Z,30.2513,-88.0778,2.553,6.98,11111222 
DISL,ioos:station:DISL:DISL:1,2019-07-06T21:00:00Z,30.2513,-88.0778,2.497,7.53,11111222 
DISL,ioos:station:DISL:DISL:1,2019-07-06T22:00:00Z,30.2513,-88.0778,2.455,8.1,11111222 
DISL,ioos:station:DISL:DISL:1,2019-07-06T23:00:00Z,30.2513,-88.0778,2.389,8.74,11111222 
DISL,ioos:station:DISL:DISL:1,2019-07-07T00:00:00Z,30.2513,-88.0778,2.317,8.35,11111222 
DISL,ioos:station:DISL:DISL:1,2019-07-07T01:00:00Z,30.2513,-88.0778,2.275,8.19,11111222 
DISL,ioos:station:DISL:DISL:1,2019-07-07T02:00:00Z,30.2513,-88.0778,2.228,6.78,11111222 
DISL,ioos:station:DISL:DISL:1,2019-07-07T03:00:00Z,30.2513,-88.0778,2.219,7.62,11111222 
DISL,ioos:station:DISL:DISL:1,2019-07-07T04:00:00Z,30.2513,-88.0778,2.191,6.72,11111222 
DISL,ioos:station:DISL:DISL:1,2019-07-07T05:00:00Z,30.2513,-88.0778,2.174,5.94,11111222 
DISL,ioos:station:DISL:DISL:1,2019-07-07T06:00:00Z,30.2513,-88.0778,2.14,5.91,11111222 
DISL,ioos:station:DISL:DISL:1,2019-07-07T07:00:00Z,30.2513,-88.0778,2.162,6.07,11111222 
DISL,ioos:station:DISL:DISL:1,2019-07-07T08:00:00Z,30.2513,-88.0778,2.221,6.29,11111222 
DISL,ioos:station:DISL:DISL:1,2019-07-07T09:00:00Z,30.2513,-88.0778,2.237,5.95,11111222 
DISL,ioos:station:DISL:DISL:1,2019-07-07T10:00:00Z,30.2513,-88.0778,2.259,5.93,11111222 
DISL,ioos:station:DISL:DISL:1,2019-07-07T11:00:00Z,30.2513,-88.0778,2.303,5.2,11111222 
DISL,ioos:station:DISL:DISL:1,2019-07-07T12:00:00Z,30.2513,-88.0778,2.345,4.5,11111222 
DISL,ioos:station:DISL:DISL:1,2019-07-07T13:00:00Z,30.2513,-88.0778,2.359,5.99,11111222 
DISL,ioos:station:DISL:DISL:1,2019-07-07T14:00:00Z,30.2513,-88.0778,2.402,4.81,11111222 
DISL,ioos:station:DISL:DISL:1,2019-07-07T15:00:00Z,30.2513,-88.0778,2.448,4.35,11111222 
DISL,ioos:station:DISL:DISL:1,2019-07-07T16:00:00Z,30.2513,-88.0778,2.464,4.31,11111222 
DISL,ioos:station:DISL:DISL:1,2019-07-07T17:00:00Z,30.2513,-88.0778,2.5,4.28,11111222 
DISL,ioos:station:DISL:DISL:1,2019-07-07T18:00:00Z,30.2513,-88.0778,2.526,5.5,11111222 
DISL,ioos:station:DISL:DISL:1,2019-07-07T19:00:00Z,30.2513,-88.0778,2.504,7.13,11111222 
DISL,ioos:station:DISL:DISL:1,2019-07-07T20:00:00Z,30.2513,-88.0778,2.509,7.11,11111222 
DISL,ioos:station:DISL:DISL:1,2019-07-07T21:00:00Z,30.2513,-88.0778,2.503,7.31,11111222 
DISL,ioos:station:DISL:DISL:1,2019-07-07T22:00:00Z,30.2513,-88.0778,2.464,7.21,11111222 
DISL,ioos:station:DISL:DISL:1,2019-07-07T23:00:00Z,30.2513,-88.0778,2.438,7.94,11111222 
DISL,ioos:station:DISL:DISL:1,2019-07-08T00:00:00Z,30.2513,-88.0778,2.391,7.58,11111222 
DISL,ioos:station:DISL:DISL:1,2019-07-08T01:00:00Z,30.2513,-88.0778,2.35,7.08,11111222 
DISL,ioos:station:DISL:DISL:1,2019-07-08T02:00:00Z,30.2513,-88.0778,2.317,6.93,11111222 
DISL,ioos:station:DISL:DISL:1,2019-07-08T03:00:00Z,30.2513,-88.0778,2.338,6.92,11111222 
DISL,ioos:station:DISL:DISL:1,2019-07-08T04:00:00Z,30.2513,-88.0778,2.28,6.36,11111222 
DISL,ioos:station:DISL:DISL:1,2019-07-08T05:00:00Z,30.2513,-88.0778,2.245,6.21,11111222 
DISL,ioos:station:DISL:DISL:1,2019-07-08T06:00:00Z,30.2513,-88.0778,2.201,5.96,11111222 
DISL,ioos:station:DISL:DISL:1,2019-07-08T07:00:00Z,30.2513,-88.0778,2.193,6.32,11111222 
DISL,ioos:station:DISL:DISL:1,2019-07-08T08:00:00Z,30.2513,-88.0778,2.175,6.8,11111222 
DISL,ioos:station:DISL:DISL:1,2019-07-08T09:00:00Z,30.2513,-88.0778,2.219,5.33,11111222 
DISL,ioos:station:DISL:DISL:1,2019-07-08T10:00:00Z,30.2513,-88.0778,2.224,4.1,11111222 
DISL,ioos:station:DISL:DISL:1,2019-07-08T11:00:00Z,30.2513,-88.0778,2.284,5.14,11111222 
DISL,ioos:station:DISL:DISL:1,2019-07-08T12:00:00Z,30.2513,-88.0778,2.309,5.06,11111222 
DISL,ioos:station:DISL:DISL:1,2019-07-08T13:00:00Z,30.2513,-88.0778,2.343,5.42,11111222 
DISL,ioos:station:DISL:DISL:1,2019-07-08T14:00:00Z,30.2513,-88.0778,2.364,5.51,11111222 
DISL,ioos:station:DISL:DISL:1,2019-07-08T15:00:00Z,30.2513,-88.0778,2.375,5.2,11111222 
DISL,ioos:station:DISL:DISL:1,2019-07-08T16:00:00Z,30.2513,-88.0778,2.375,5.39,11111222 
DISL,ioos:station:DISL:DISL:1,2019-07-08T17:00:00Z,30.2513,-88.0778,2.379,5.29,11111222 
DISL,ioos:station:DISL:DISL:1,2019-07-08T18:00:00Z,30.2513,-88.0778,2.391,5.85,11111222 
DISL,ioos:station:DISL:DISL:1,2019-07-08T19:00:00Z,30.2513,-88.0778,2.383,6.1,11111222 
DISL,ioos:station:DISL:DISL:1,2019-07-08T20:00:00Z,30.2513,-88.0778,2.365,7.18,11111222 
DISL,ioos:station:DISL:DISL:1,2019-07-08T21:00:00Z,30.2513,-88.0778,2.364,6.6,11111222 
DISL,ioos:station:DISL:DISL:1,2019-07-08T22:00:00Z,30.2513,-88.0778,2.362,6.69,11111222 
DISL,ioos:station:DISL:DISL:1,2019-07-08T23:00:00Z,30.2513,-88.0778,2.321,6.94,11111222 
DISL,ioos:station:DISL:DISL:1,2019-07-09T00:00:00Z,30.2513,-88.0778,2.308,7.12,11111222 
DISL,ioos:station:DISL:DISL:1,2019-07-09T01:00:00Z,30.2513,-88.0778,2.349,7.27,11111222 
DISL,ioos:station:DISL:DISL:1,2019-07-09T02:00:00Z,30.2513,-88.0778,2.29,6.7,11111222 
DISL,ioos:station:DISL:DISL:1,2019-07-09T03:00:00Z,30.2513,-88.0778,2.249,6.36,11111222 
DISL,ioos:station:DISL:DISL:1,2019-07-09T04:00:00Z,30.2513,-88.0778,2.259,5.74,11111222 
DISL,ioos:station:DISL:DISL:1,2019-07-09T05:00:00Z,30.2513,-88.0778,2.244,4.91,11111222 
DISL,ioos:station:DISL:DISL:1,2019-07-09T06:00:00Z,30.2513,-88.0778,2.26,5.53,11111222 
DISL,ioos:station:DISL:DISL:1,2019-07-09T07:00:00Z,30.2513,-88.0778,2.268,5.54,11111222 
DISL,ioos:station:DISL:DISL:1,2019-07-09T08:00:00Z,30.2513,-88.0778,2.294,5.83,11111222 
DISL,ioos:station:DISL:DISL:1,2019-07-09T09:00:00Z,30.2513,-88.0778,2.305,4.76,11111222 
DISL,ioos:station:DISL:DISL:1,2019-07-09T10:00:00Z,30.2513,-88.0778,2.326,4.43,11111222 
DISL,ioos:station:DISL:DISL:1,2019-07-09T11:00:00Z,30.2513,-88.0778,2.355,5.43,11111222 
DISL,ioos:station:DISL:DISL:1,2019-07-09T12:00:00Z,30.2513,-88.0778,2.383,4.73,11111222 
DISL,ioos:station:DISL:DISL:1,2019-07-09T13:00:00Z,30.2513,-88.0778,2.369,4.95,11111222 
DISL,ioos:station:DISL:DISL:1,2019-07-09T14:00:00Z,30.2513,-88.0778,2.379,5.58,11111222 
DISL,ioos:station:DISL:DISL:1,2019-07-09T15:00:00Z,30.2513,-88.0778,2.353,5.63,11111222 
DISL,ioos:station:DISL:DISL:1,2019-07-09T16:00:00Z,30.2513,-88.0778,2.369,7.37,11111222 
DISL,ioos:station:DISL:DISL:1,2019-07-09T17:00:00Z,30.2513,-88.0778,2.336,7.85,11111222 
DISL,ioos:station:DISL:DISL:1,2019-07-09T18:00:00Z,30.2513,-88.0778,2.315,7.01,11111222 
DISL,ioos:station:DISL:DISL:1,2019-07-09T19:00:00Z,30.2513,-88.0778,2.288,6.84,11111222 
DISL,ioos:station:DISL:DISL:1,2019-07-09T20:00:00Z,30.2513,-88.0778,2.293,6.7,11111222 
DISL,ioos:station:DISL:DISL:1,2019-07-09T21:00:00Z,30.2513,-88.0778,2.242,6.51,11111222 
DISL,ioos:station:DISL:DISL:1,2019-07-09T22:00:00Z,30.2513,-88.0778,2.287,6.22,11111222 
DISL,ioos:station:DISL:DISL:1,2019-07-09T23:00:00Z,30.2513,-88.0778,2.249,6.47,11111222 
DISL,ioos:station:DISL:DISL:1,2019-07-10T00:00:00Z,30.2513,-88.0778,2.252,6.88,11111222 
DISL,ioos:station:DISL:DISL:1,2019-07-10T01:00:00Z,30.2513,-88.0778,2.265,6.57,11111222 
DISL,ioos:station:DISL:DISL:1,2019-07-10T02:00:00Z,30.2513,-88.0778,2.234,6.39,11111222 
DISL,ioos:station:DISL:DISL:1,2019-07-10T03:00:00Z,30.2513,-88.0778,2.206,6.18,11111222 
DISL,ioos:station:DISL:DISL:1,2019-07-10T04:00:00Z,30.2513,-88.0778,2.217,6.15,11111222 
DISL,ioos:station:DISL:DISL:1,2019-07-10T05:00:00Z,30.2513,-88.0778,2.229,6.02,11111222 
DISL,ioos:station:DISL:DISL:1,2019-07-10T06:00:00Z,30.2513,-88.0778,2.252,5.65,11111222 
DISL,ioos:station:DISL:DISL:1,2019-07-10T07:00:00Z,30.2513,-88.0778,2.276,5.74,11111222 
DISL,ioos:station:DISL:DISL:1,2019-07-10T08:00:00Z,30.2513,-88.0778,2.318,5.86,11111222 
DISL,ioos:station:DISL:DISL:1,2019-07-10T09:00:00Z,30.2513,-88.0778,2.346,4.56,11111222 
DISL,ioos:station:DISL:DISL:1,2019-07-10T10:00:00Z,30.2513,-88.0778,2.345,5.19,11111222 
DISL,ioos:station:DISL:DISL:1,2019-07-10T11:00:00Z,30.2513,-88.0778,2.366,5.45,11111222 
DISL,ioos:station:DISL:DISL:1,2019-07-10T12:00:00Z,30.2513,-88.0778,2.403,5.35,11111222 
DISL,ioos:station:DISL:DISL:1,2019-07-10T13:00:00Z,30.2513,-88.0778,2.393,5.79,11111222 
DISL,ioos:station:DISL:DISL:1,2019-07-10T14:00:00Z,30.2513,-88.0778,2.381,6.49,11111222 
DISL,ioos:station:DISL:DISL:1,2019-07-10T15:00:00Z,30.2513,-88.0778,2.383,6.54,11111222 
DISL,ioos:station:DISL:DISL:1,2019-07-10T16:00:00Z,30.2513,-88.0778,2.338,6.04,11111222 
DISL,ioos:station:DISL:DISL:1,2019-07-10T17:00:00Z,30.2513,-88.0778,2.295,7.03,11111222 
DISL,ioos:station:DISL:DISL:1,2019-07-10T18:00:00Z,30.2513,-88.0778,2.291,7.41,11111222 
DISL,ioos:station:DISL:DISL:1,2019-07-10T19:00:00Z,30.2513,-88.0778,2.27,7.67,11111222 
DISL,ioos:station:DISL:DISL:1,2019-07-10T20:00:00Z,30.2513,-88.0778,2.255,7.51,11111222 
DISL,ioos:station:DISL:DISL:1,2019-07-10T21:00:00Z,30.2513,-88.0778,2.255,7.85,11111222 
DISL,ioos:station:DISL:DISL:1,2019-07-10T22:00:00Z,30.2513,-88.0778,2.24,7.84,11111222 
DISL,ioos:station:DISL:DISL:1,2019-07-10T23:00:00Z,30.2513,-88.0778,2.287,7.66,11111222 
DISL,ioos:station:DISL:DISL:1,2019-07-11T00:00:00Z,30.2513,-88.0778,2.253,7.06,11111222 
DISL,ioos:station:DISL:DISL:1,2019-07-11T01:00:00Z,30.2513,-88.0778,2.281,6.66,11111222 
DISL,ioos:station:DISL:DISL:1,2019-07-11T02:00:00Z,30.2513,-88.0778,2.291,5.0,11111222 
DISL,ioos:station:DISL:DISL:1,2019-07-11T03:00:00Z,30.2513,-88.0778,2.316,3.4,11111222 
DISL,ioos:station:DISL:DISL:1,2019-07-11T04:00:00Z,30.2513,-88.0778,2.334,3.73,11111222 
DISL,ioos:station:DISL:DISL:1,2019-07-11T05:00:00Z,30.2513,-88.0778,2.367,4.12,11111222 
DISL,ioos:station:DISL:DISL:1,2019-07-11T06:00:00Z,30.2513,-88.0778,2.375,3.28,11111222 
DISL,ioos:station:DISL:DISL:1,2019-07-11T07:00:00Z,30.2513,-88.0778,2.42,3.56,11111222 
DISL,ioos:station:DISL:DISL:1,2019-07-11T08:00:00Z,30.2513,-88.0778,2.465,3.69,11111222 
DISL,ioos:station:DISL:DISL:1,2019-07-11T09:00:00Z,30.2513,-88.0778,2.494,3.73,11111222 
DISL,ioos:station:DISL:DISL:1,2019-07-11T10:00:00Z,30.2513,-88.0778,2.54,3.56,11111222 
DISL,ioos:station:DISL:DISL:1,2019-07-11T11:00:00Z,30.2513,-88.0778,2.572,3.47,11111222 
DISL,ioos:station:DISL:DISL:1,2019-07-11T12:00:00Z,30.2513,-88.0778,2.614,3.45,11111222 
DISL,ioos:station:DISL:DISL:1,2019-07-11T13:00:00Z,30.2513,-88.0778,2.621,4.17,11111222 
DISL,ioos:station:DISL:DISL:1,2019-07-11T14:00:00Z,30.2513,-88.0778,2.616,5.02,11111222 
DISL,ioos:station:DISL:DISL:1,2019-07-11T15:00:00Z,30.2513,-88.0778,2.597,6.64,11111222 
DISL,ioos:station:DISL:DISL:1,2019-07-11T16:00:00Z,30.2513,-88.0778,2.573,6.91,11111222 
DISL,ioos:station:DISL:DISL:1,2019-07-11T17:00:00Z,30.2513,-88.0778,2.555,6.68,11111222 
DISL,ioos:station:DISL:DISL:1,2019-07-11T18:00:00Z,30.2513,-88.0778,2.531,6.09,11111222 
DISL,ioos:station:DISL:DISL:1,2019-07-11T19:00:00Z,30.2513,-88.0778,2.492,6.66,11111222 
DISL,ioos:station:DISL:DISL:1,2019-07-11T20:00:00Z,30.2513,-88.0778,2.461,7.04,11111222 
DISL,ioos:station:DISL:DISL:1,2019-07-11T21:00:00Z,30.2513,-88.0778,2.429,7.0,11111222 
DISL,ioos:station:DISL:DISL:1,2019-07-11T22:00:00Z,30.2513,-88.0778,2.4,6.58,11111222 
DISL,ioos:station:DISL:DISL:1,2019-07-11T23:00:00Z,30.2513,-88.0778,2.394,5.86,11111222 
DISL,ioos:station:DISL:DISL:1,2019-07-12T00:00:00Z,30.2513,-88.0778,2.408,6.19,11111222 
DISL,ioos:station:DISL:DISL:1,2019-07-12T01:00:00Z,30.2513,-88.0778,2.407,6.46,11111222 
DISL,ioos:station:DISL:DISL:1,2019-07-12T02:00:00Z,30.2513,-88.0778,2.435,6.28,11111222 
DISL,ioos:station:DISL:DISL:1,2019-07-12T03:00:00Z,30.2513,-88.0778,2.47,5.73,11111222 
DISL,ioos:station:DISL:DISL:1,2019-07-12T04:00:00Z,30.2513,-88.0778,2.467,5.69,11111222 
DISL,ioos:station:DISL:DISL:1,2019-07-12T05:00:00Z,30.2513,-88.0778,2.504,5.53,11111222 
DISL,ioos:station:DISL:DISL:1,2019-07-12T06:00:00Z,30.2513,-88.0778,2.558,5.7,11111222 
DISL,ioos:station:DISL:DISL:1,2019-07-12T07:00:00Z,30.2513,-88.0778,2.621,5.75,11111222 
DISL,ioos:station:DISL:DISL:1,2019-07-12T08:00:00Z,30.2513,-88.0778,2.653,5.87,11111222 